Tracking 28920 objects as of 26-May-2024
HD Live streaming from Space Station
objects crossing your sky now

ABS-1A (KOREASAT 2)

Track ABS-1A (KOREASAT 2) now!
ABS-1A (KOREASAT 2) is classified as:


NORAD ID: 23768
Int'l Code: 1996-003A
Perigee: 35,904.4 km
Apogee: 35,948.9 km
Inclination: 11.6 °
Period: 1,442.9 minutes
Semi major axis: 42297 km
RCS: 25.1188 m2 (large)
Launch date: January 14, 1996
Source: South Korea (SKOR)
Launch site: AIR FORCE EASTERN TEST RANGE (AFETR)

Korean peninsula; 15 Ku-band transponders.
Your satellite tracking list
Your tracking list is empty




NASA's NSSDC Master Catalog

Two Line Element Set (TLE):
1 23768U 96003A   24146.46300762  .00000044  00000-0  00000-0 0  9997
2 23768  11.5783  30.8682 0005268  74.4308 137.7027  0.99799594103661
Source of the keplerian elements: AFSPC